When you browse on this site, cookies collect data to enhance your experience and personalize the content and advertising you see.
Visit our Privacy Policy to learn more. By continuing to use the site, you agree to this use of cookies and data.
EN

Hourly Weather Montgomery Village

Today, 3 August, Monday

Time Temperature Precipitation Wind Pressure Humidity
00:00 +25°C° 0.2 mm 2 mps 749 mmHg 78%
01:00 +24°C° 0 mm 1 mps 749 mmHg 80%
02:00 +24°C° 0 mm 1 mps 749 mmHg 81%
03:00 +23°C° 0 mm 1 mps 749 mmHg 81%
04:00 +23°C° 0 mm 1 mps 749 mmHg 81%
05:00 +24°C° 0 mm 1 mps 750 mmHg 79%
06:00 +22°C° 0 mm 0 mps 750 mmHg 78%
07:00 +23°C° 0 mm 0 mps 751 mmHg 76%
08:00 +24°C° 0 mm 0 mps 751 mmHg 70%
09:00 +26°C° 0 mm 0 mps 751 mmHg 65%
10:00 +27°C° 0 mm 0 mps 751 mmHg 59%
11:00 +28°C° 0.3 mm 0 mps 751 mmHg 60%
12:00 +30°C° 0.3 mm 1 mps 751 mmHg 62%
13:00 +30°C° 0.3 mm 1 mps 751 mmHg 63%
14:00 +30°C° 0.4 mm 1 mps 750 mmHg 65%
15:00 +29°C° 0.4 mm 1 mps 750 mmHg 66%
16:00 +29°C° 0.4 mm 1 mps 750 mmHg 68%
17:00 +27°C° 7.4 mm 2 mps 750 mmHg 75%
18:00 +26°C° 7.4 mm 3 mps 750 mmHg 82%
19:00 +23°C° 7.4 mm 5 mps 750 mmHg 90%
20:00 +23°C° 1 mm 4 mps 750 mmHg 88%
21:00 +24°C° 1 mm 3 mps 750 mmHg 85%
22:00 +24°C° 1 mm 3 mps 750 mmHg 83%
23:00 +24°C° 0.5 mm 2 mps 750 mmHg 85%

Tomorrow, 4 August, Tuesday

Time Temperature Precipitation Wind Pressure Humidity
00:00 +23°C° 0.5 mm 2 mps 750 mmHg 88%
01:00 +23°C° 0.5 mm 2 mps 750 mmHg 90%
02:00 +23°C° 2.5 mm 2 mps 749 mmHg 91%
03:00 +21°C° 2.5 mm 2 mps 748 mmHg 92%
04:00 +22°C° 2.5 mm 1 mps 747 mmHg 93%
05:00 +21°C° 7.4 mm 3 mps 745 mmHg 94%
06:00 +21°C° 7.4 mm 5 mps 744 mmHg 94%
07:00 +21°C° 7.4 mm 7 mps 743 mmHg 95%
08:00 +21°C° 15 mm 7 mps 742 mmHg 95%
09:00 +21°C° 15 mm 7 mps 742 mmHg 95%
10:00 +21°C° 15 mm 8 mps 741 mmHg 94%
11:00 +22°C° 1.2 mm 7 mps 742 mmHg 88%
12:00 +25°C° 1.2 mm 5 mps 743 mmHg 82%
13:00 +27°C° 1.2 mm 4 mps 745 mmHg 76%
14:00 +28°C° 0.1 mm 4 mps 745 mmHg 73%
15:00 +29°C° 0.1 mm 4 mps 745 mmHg 70%
16:00 +29°C° 0.1 mm 3 mps 746 mmHg 67%
17:00 +29°C° 0.1 mm 3 mps 746 mmHg 70%
18:00 +28°C° 0.1 mm 3 mps 746 mmHg 74%
19:00 +27°C° 0.1 mm 2 mps 746 mmHg 77%
20:00 +26°C° 0 mm 2 mps 747 mmHg 78%
21:00 +25°C° 0 mm 1 mps 747 mmHg 80%
22:00 +25°C° 0 mm 1 mps 747 mmHg 82%
23:00 +24°C° 0 mm 1 mps 748 mmHg 83%

Day after tomorrow, 5 August, Wednesday

Time Temperature Precipitation Wind Pressure Humidity
00:00 +24°C° 0 mm 1 mps 748 mmHg 84%
01:00 +24°C° 0 mm 1 mps 748 mmHg 85%
02:00 +24°C° 0 mm 1 mps 748 mmHg 86%
03:00 +23°C° 0 mm 1 mps 748 mmHg 86%
04:00 +23°C° 0 mm 1 mps 748 mmHg 86%
05:00 +24°C° 0 mm 1 mps 748 mmHg 84%
06:00 +24°C° 0 mm 1 mps 749 mmHg 82%
07:00 +25°C° 0 mm 1 mps 749 mmHg 80%
08:00 +26°C° 0 mm 2 mps 750 mmHg 75%
09:00 +27°C° 0 mm 2 mps 750 mmHg 70%
10:00 +29°C° 0 mm 2 mps 750 mmHg 65%
11:00 +29°C° 0 mm 2 mps 750 mmHg 63%
12:00 +30°C° 0 mm 2 mps 750 mmHg 60%
13:00 +31°C° 0 mm 2 mps 750 mmHg 58%
14:00 +31°C° 0.4 mm 2 mps 750 mmHg 60%
15:00 +30°C° 0.4 mm 2 mps 749 mmHg 62%
16:00 +30°C° 0.4 mm 2 mps 749 mmHg 64%
17:00 +29°C° 0.9 mm 1 mps 749 mmHg 67%
18:00 +28°C° 0.9 mm 1 mps 749 mmHg 71%
19:00 +27°C° 0.9 mm 1 mps 750 mmHg 74%
20:00 +26°C° 0.1 mm 1 mps 750 mmHg 76%
21:00 +26°C° 0.1 mm 1 mps 750 mmHg 77%
22:00 +25°C° 0.1 mm 1 mps 750 mmHg 79%
23:00 +25°C° 0.1 mm 1 mps 750 mmHg 80%

6 August, Thursday

Time Temperature Precipitation Wind Pressure Humidity
00:00 +22°C° 0.1 mm 0 mps 750 mmHg 82%
01:00 +22°C° 0.1 mm 0 mps 750 mmHg 83%
02:00 +24°C° 0.2 mm 1 mps 750 mmHg 85%
03:00 +23°C° 0.2 mm 1 mps 750 mmHg 87%
04:00 +23°C° 0.2 mm 1 mps 750 mmHg 89%
05:00 +23°C° 0.6 mm 2 mps 750 mmHg 88%
06:00 +23°C° 0.6 mm 2 mps 751 mmHg 87%
07:00 +22°C° 0.6 mm 3 mps 751 mmHg 86%
08:00 +24°C° 0.7 mm 3 mps 751 mmHg 82%
09:00 +26°C° 0.7 mm 3 mps 751 mmHg 79%
10:00 +27°C° 0.7 mm 2 mps 752 mmHg 75%
11:00 +28°C° 0.1 mm 2 mps 751 mmHg 71%
12:00 +29°C° 0.1 mm 2 mps 751 mmHg 66%
13:00 +30°C° 0.1 mm 2 mps 751 mmHg 62%
14:00 +30°C° 1.2 mm 2 mps 751 mmHg 65%
15:00 +30°C° 1.2 mm 2 mps 750 mmHg 67%
16:00 +30°C° 1.2 mm 2 mps 750 mmHg 70%
17:00 +29°C° 0.6 mm 2 mps 750 mmHg 73%
18:00 +28°C° 0.6 mm 2 mps 750 mmHg 76%
19:00 +27°C° 0.6 mm 2 mps 750 mmHg 80%
20:00 +26°C° 1.7 mm 2 mps 750 mmHg 82%
21:00 +26°C° 1.7 mm 1 mps 750 mmHg 84%
22:00 +25°C° 1.7 mm 1 mps 751 mmHg 85%
23:00 +25°C° 0.9 mm 1 mps 751 mmHg 86%

7 August, Friday

Time Temperature Precipitation Wind Pressure Humidity
00:00 +24°C° 0.9 mm 1 mps 751 mmHg 87%
01:00 +24°C° 0.9 mm 1 mps 750 mmHg 88%
02:00 +24°C° 0.1 mm 1 mps 750 mmHg 89%
03:00 +23°C° 0.1 mm 1 mps 750 mmHg 89%
04:00 +23°C° 0.1 mm 2 mps 750 mmHg 90%
05:00 +23°C° 0.1 mm 2 mps 751 mmHg 90%
06:00 +24°C° 0.1 mm 2 mps 751 mmHg 89%
07:00 +24°C° 0.1 mm 2 mps 751 mmHg 89%
08:00 +25°C° 0.2 mm 2 mps 752 mmHg 85%
09:00 +27°C° 0.2 mm 2 mps 752 mmHg 80%
10:00 +28°C° 0.2 mm 2 mps 752 mmHg 76%
11:00 +29°C° 0.2 mm 2 mps 752 mmHg 73%
12:00 +29°C° 0.2 mm 2 mps 751 mmHg 70%
13:00 +30°C° 0.2 mm 2 mps 751 mmHg 67%
14:00 +30°C° 0.2 mm 2 mps 751 mmHg 67%
15:00 +30°C° 0.2 mm 2 mps 751 mmHg 67%
16:00 +30°C° 0.2 mm 2 mps 750 mmHg 66%
17:00 +29°C° 0.5 mm 2 mps 750 mmHg 69%
18:00 +28°C° 0.5 mm 1 mps 751 mmHg 72%
19:00 +27°C° 0.5 mm 1 mps 751 mmHg 75%
20:00 +26°C° 0.1 mm 1 mps 751 mmHg 77%
21:00 +26°C° 0.1 mm 1 mps 752 mmHg 79%
22:00 +25°C° 0.1 mm 1 mps 752 mmHg 80%
23:00 +25°C° 0 mm 1 mps 752 mmHg 81%

8 August, Saturday

Time Temperature Precipitation Wind Pressure Humidity
00:00 +24°C° 0 mm 1 mps 752 mmHg 82%
01:00 +22°C° 0 mm 0 mps 752 mmHg 83%
02:00 +24°C° 0 mm 1 mps 752 mmHg 84%
03:00 +24°C° 0 mm 1 mps 752 mmHg 84%
04:00 +23°C° 0 mm 1 mps 752 mmHg 85%
05:00 +24°C° 0 mm 1 mps 752 mmHg 84%
06:00 +24°C° 0 mm 1 mps 753 mmHg 83%
07:00 +25°C° 0 mm 2 mps 753 mmHg 82%
08:00 +27°C° 0.2 mm 1 mps 753 mmHg 76%
09:00 +28°C° 0.2 mm 1 mps 753 mmHg 69%
10:00 +30°C° 0.2 mm 1 mps 753 mmHg 63%
11:00 +31°C° 0.1 mm 1 mps 753 mmHg 60%
12:00 +32°C° 0.1 mm 1 mps 753 mmHg 56%
13:00 +33°C° 0.1 mm 1 mps 753 mmHg 53%
14:00 +32°C° 0.3 mm 1 mps 752 mmHg 54%
15:00 +32°C° 0.3 mm 1 mps 752 mmHg 56%
16:00 +32°C° 0.3 mm 1 mps 752 mmHg 58%
17:00 +31°C° 0.1 mm 1 mps 752 mmHg 61%
18:00 +29°C° 0.1 mm 1 mps 752 mmHg 64%
19:00 +28°C° 0.1 mm 1 mps 752 mmHg 67%
20:00 +28°C° 0.2 mm 1 mps 752 mmHg 69%
21:00 +27°C° 0.2 mm 1 mps 753 mmHg 72%
22:00 +26°C° 0.2 mm 2 mps 753 mmHg 74%
23:00 +25°C° 0.3 mm 1 mps 753 mmHg 77%
Show more